{"data":{"norad_id":69313,"intl_designator":"2026-119T","name":"STARLINK-37676","alt_names":[],"object_type":"PAYLOAD","status":"ACTIVE","operator":null,"country":"US","launch_date":"2026-05-30","launch_site_code":"AFWTR","launch_vehicle":null,"mission":null,"orbit_class":"UNKNOWN","rcs_meters":null,"size_class":null,"mass_kg":null,"dimensions":null,"purposes":["comms"],"wikipedia_slug":null,"has_3d_model":false,"image_url":null,"decayed_at":null,"tle_current":{"epoch":"2026-09-20T00:39:39.513024Z","epoch_age_seconds":69753,"freshness":"FRESH","line1":"1 69313U 26119T   26263.02754066  .00010782  00000+0  33576-3 0  9994","line2":"2 69313  97.2848 287.8077 0001491 109.2466 250.8938 15.33451958 18596","mean_motion":15.33451958,"eccentricity":0.0001491,"inclination_deg":97.2848,"raan_deg":287.8077,"arg_perigee_deg":109.2466,"mean_anomaly_deg":250.8938,"bstar":0.00033576,"rev_number":1859,"period_min":93.905778559774,"perigee_km":464.50208281644,"apogee_km":466.54286207112,"semimajor_km":6843.6594724438,"source":"CELESTRAK","updated_at":"2026-09-20T09:00:44.157349Z"}}}